TimeCST,TemperatureF,Dew PointF,Humidity,Sea Level PressureIn,VisibilityMPH,Wind Direction,Wind SpeedMPH,Gust SpeedMPH,PrecipitationIn,Events,Conditions,WindDirDegrees,DateUTC
12:15 AM,53.6,-9999,N/A,29.71,1.5,West,11.5,21.9,0.24,,Overcast,270,2014-01-11 06:15:00
12:35 AM,53.6,-9999,N/A,29.70,2.5,WSW,13.8,21.9,0.44,,Mostly Cloudy,240,2014-01-11 06:35:00
12:55 AM,53.6,-9999,N/A,29.70,4.0,WSW,15.0,23.0,0.46,,Mostly Cloudy,240,2014-01-11 06:55:00
1:15 AM,53.6,-9999,N/A,29.69,10.0,West,9.2,18.4,0.00,,Mostly Cloudy,260,2014-01-11 07:15:00
1:35 AM,53.6,53.6,100,29.70,10.0,WSW,9.2,-,0.00,,Mostly Cloudy,240,2014-01-11 07:35:00
1:55 AM,53.6,53.6,100,29.70,10.0,WSW,6.9,-,0.00,,Overcast,240,2014-01-11 07:55:00
2:15 AM,53.6,53.6,100,29.70,10.0,West,4.6,-,0.00,,Overcast,260,2014-01-11 08:15:00
2:35 AM,53.6,53.6,100,29.71,10.0,WSW,9.2,-,0.00,,Overcast,250,2014-01-11 08:35:00
2:55 AM,53.6,53.6,100,29.72,10.0,West,8.1,-,0.00,,Mostly Cloudy,260,2014-01-11 08:55:00
3:15 AM,51.8,51.8,100,29.73,10.0,West,6.9,-,0.00,,Overcast,260,2014-01-11 09:15:00
3:35 AM,51.8,51.8,100,29.74,9.0,West,8.1,-,0.00,,Mostly Cloudy,260,2014-01-11 09:35:00
3:55 AM,51.8,51.8,100,29.73,10.0,West,8.1,-,0.00,,Partly Cloudy,270,2014-01-11 09:55:00
4:15 AM,50.0,50.0,100,29.74,10.0,West,5.8,-,0.00,,Mostly Cloudy,270,2014-01-11 10:15:00
4:35 AM,48.2,48.2,100,29.75,10.0,West,4.6,-,0.00,,Scattered Clouds,260,2014-01-11 10:35:00
4:55 AM,48.2,48.2,100,29.75,10.0,West,3.5,-,0.00,,Partly Cloudy,260,2014-01-11 10:55:00
5:15 AM,46.4,46.4,100,29.76,10.0,WSW,4.6,-,0.00,,Clear,240,2014-01-11 11:15:00
5:35 AM,44.6,44.6,100,29.76,10.0,SW,5.8,-,0.00,,Clear,230,2014-01-11 11:35:00
6:50 AM,42.8,42.8,100,29.79,10.0,SW,5.8,-,N/A,,Partly Cloudy,230,2014-01-11 12:50:00
7:50 AM,44.6,44.6,100,29.81,-9999.0,WSW,6.9,-,N/A,,Clear,240,2014-01-11 13:50:00
8:50 AM,46.4,44.6,93,29.83,-9999.0,West,8.1,17.3,N/A,,Clear,260,2014-01-11 14:50:00
9:50 AM,48.2,42.8,82,29.86,-9999.0,WNW,11.5,19.6,N/A,,Clear,290,2014-01-11 15:50:00
10:50 AM,48.2,42.8,82,29.86,-9999.0,West,9.2,19.6,N/A,,Partly Cloudy,260,2014-01-11 16:50:00
11:50 AM,48.2,42.8,82,29.86,-9999.0,West,13.8,19.6,N/A,,Scattered Clouds,280,2014-01-11 17:50:00
12:50 PM,50.0,41.0,71,29.85,-9999.0,West,11.5,18.4,N/A,,Mostly Cloudy,280,2014-01-11 18:50:00
1:50 PM,51.8,42.8,71,29.87,-9999.0,West,11.5,17.3,N/A,,Mostly Cloudy,270,2014-01-11 19:50:00
2:50 PM,51.8,41.0,67,29.88,-9999.0,West,11.5,17.3,N/A,,Mostly Cloudy,270,2014-01-11 20:50:00
3:50 PM,50.0,41.0,71,29.91,-9999.0,West,11.5,-,N/A,,Mostly Cloudy,270,2014-01-11 21:50:00
4:50 PM,48.2,41.0,76,29.92,-9999.0,West,5.8,-,N/A,,Clear,260,2014-01-11 22:50:00
5:50 PM,44.6,42.8,93,29.94,-9999.0,WSW,5.8,-,N/A,,Clear,240,2014-01-11 23:50:00
6:50 PM,41.0,39.2,93,29.96,-9999.0,Calm,Calm,-,N/A,,Clear,0,2014-01-12 00:50:00
7:50 PM,39.2,39.2,100,29.99,-9999.0,Calm,Calm,-,N/A,,Clear,0,2014-01-12 01:50:00
7:55 PM,39.2,39.2,100,29.98,9.0,SSW,6.9,-,0.00,,Clear,200,2014-01-12 01:55:00
8:15 PM,39.2,39.2,100,29.98,9.0,SSW,5.8,-,0.00,,Clear,210,2014-01-12 02:15:00
8:35 PM,39.2,39.2,100,29.99,10.0,SSW,6.9,-,0.00,,Clear,200,2014-01-12 02:35:00
8:55 PM,37.4,37.4,100,30.00,10.0,SSW,6.9,-,0.00,,Clear,200,2014-01-12 02:55:00
9:15 PM,37.4,37.4,100,30.00,10.0,SW,6.9,-,0.00,,Clear,220,2014-01-12 03:15:00
9:35 PM,37.4,37.4,100,30.01,10.0,SSW,6.9,-,0.00,,Clear,210,2014-01-12 03:35:00
9:55 PM,39.2,39.2,100,30.01,10.0,SW,5.8,-,0.00,,Clear,230,2014-01-12 03:55:00
10:15 PM,39.2,39.2,100,30.02,9.0,WSW,6.9,-,0.00,,Clear,250,2014-01-12 04:15:00
10:35 PM,41.0,37.4,87,30.02,10.0,West,6.9,-,0.00,,Clear,280,2014-01-12 04:35:00
10:55 PM,41.0,37.4,87,30.02,10.0,West,6.9,-,0.00,,Clear,270,2014-01-12 04:55:00
11:15 PM,41.0,37.4,87,30.03,10.0,West,3.5,-,0.00,,Clear,270,2014-01-12 05:15:00
11:35 PM,39.2,37.4,93,30.03,9.0,WSW,3.5,-,0.00,,Clear,250,2014-01-12 05:35:00
11:55 PM,39.2,37.4,93,30.03,10.0,Calm,Calm,-,0.00,,Clear,0,2014-01-12 05:55:00